Home   Weather   Derby   Past weeks

Flag for United Kingdom Past Weather in Derby, England, United Kingdom — Yesterday and Last 2 Weeks

46 °F


Feels Like: 44 °F
Forecast: 44 / 51 °F
Wind: 6 mph from Northeast

Location: East Midlands

Current Time: Oct 22, 2016 at 6:58:31 PM

Latest Report: Oct 22, 2016 at 6:20 PM

Visibility: 10 mi

Pressure: 30.04 "Hg

Humidity: 87%

Dew Point: 43 °F

Location of DerbyLocation

Past Weather in Derby — Graph


Derby Temperature Yesterday

Maximum temperature yesterday: 54 °F (at 1:20 PM)
Minimum temperature yesterday: 41 °F (at 4:50 AM)
Average temperature yesterday: 47 °F

High & Low Weather Summary for the Past Weeks

High61 °F (Oct 16, 1:50 PM)100% (Oct 8, 1:50 AM)30.42 "Hg (Oct 8, 1:50 AM)
Low39 °F (Oct 10, 5:20 AM)58% (Oct 18, 1:50 PM)29.65 "Hg (Oct 15, 3:50 AM)
Average50 °F86%30.09 "Hg
* Reported Oct 7 5:20 PM — Oct 22 5:50 PM, Derby, Weather by CustomWeather, © 2016

Note: Actual official high and low records may vary slightly from our data, if they occured in-between our weather recording intervals... More about our weather records


Derby Weather History for the Previous 24 Hours

Scroll right to see more
Time TempWeatherWind HumidityBarometerVisibility
5:50 PM
Sat, Oct 22
48 °FPassing clouds.7 mph82%30.01 "HgN/A
5:20 PM50 °FScattered clouds.6 mph82%30.01 "HgN/A
4:50 PM50 °FScattered clouds.8 mph82%30.01 "HgN/A
4:20 PM50 °FPartly sunny.8 mph82%30.04 "HgN/A
3:50 PM52 °FBroken clouds.9 mph82%30.04 "HgN/A
3:20 PM50 °FScattered showers. Partly sunny.7 mph88%30.04 "HgN/A
2:50 PM54 °FSprinkles. Scattered clouds.7 mph72%30.04 "HgN/A
2:20 PM52 °FScattered showers. Partly sunny.9 mph77%30.04 "HgN/A
1:50 PM52 °FSprinkles. Broken clouds.14 mph77%30.04 "HgN/A
1:20 PM52 °FBroken clouds.8 mph77%30.04 "HgN/A
12:50 PM52 °FBroken clouds.9 mph82%30.07 "HgN/A
12:20 PM52 °FScattered clouds.9 mph82%30.07 "HgN/A
11:50 AM50 °FScattered clouds.8 mph88%30.07 "HgN/A
11:20 AM50 °FScattered clouds.8 mph88%30.07 "HgN/A
10:50 AM48 °FScattered clouds.7 mph94%30.07 "Hg5 mi
10:20 AM46 °FScattered clouds.7 mph100%30.07 "Hg4 mi
9:50 AM46 °FScattered clouds.6 mph100%30.07 "Hg4 mi
9:20 AM45 °FPassing clouds.5 mph100%30.07 "Hg4 mi
8:50 AM45 °FFog.6 mph100%30.07 "Hg2 mi
8:20 AM43 °FFog.5 mph100%30.07 "Hg2 mi
7:50 AM45 °FFog.5 mph93%30.07 "Hg1 mi
7:20 AM41 °FFog.5 mph100%30.07 "Hg1 mi
6:50 AM41 °FPassing clouds.6 mph100%30.07 "Hg4 mi
6:20 AM43 °FPassing clouds.3 mph93%30.07 "Hg5 mi
5:50 AM43 °FPassing clouds.3 mph100%30.07 "Hg5 mi
5:20 AM43 °FPassing clouds.3 mph100%30.07 "Hg6 mi
4:50 AM43 °FClear.3 mph100%30.07 "Hg6 mi
4:20 AM43 °FClear.2 mph93%30.07 "Hg6 mi
3:50 AM43 °FClear.3 mph93%30.09 "Hg6 mi
3:20 AM43 °FPassing clouds.5 mph93%30.09 "Hg6 mi
2:50 AM41 °FPassing clouds.5 mph100%30.09 "HgN/A
2:20 AM43 °FPassing clouds.5 mph93%30.09 "HgN/A
1:50 AM41 °FPassing clouds.3 mph100%30.09 "HgN/A
1:20 AM43 °FPassing clouds.5 mph93%30.09 "HgN/A
12:50 AM43 °FClear.5 mph93%30.09 "Hg10 mi
12:20 AM43 °FClear.6 mph93%30.12 "Hg10 mi
11:50 PM
Fri, Oct 21
45 °FClear.5 mph87%30.12 "Hg10 mi
11:20 PM43 °FClear.5 mph93%30.12 "Hg10 mi
10:50 PM45 °FPassing clouds.3 mph87%30.12 "HgN/A
10:20 PM45 °FPassing clouds.5 mph87%30.12 "HgN/A
9:50 PM45 °FClear.6 mph87%30.12 "Hg10 mi
9:20 PM46 °FClear.5 mph87%30.12 "Hg10 mi
8:50 PM46 °FClear.5 mph87%30.12 "Hg10 mi
8:20 PM48 °FClear.5 mph82%30.12 "Hg10 mi
7:50 PM48 °FPassing clouds.3 mph87%30.12 "HgN/A
7:20 PM50 °FClear.6 mph82%30.12 "Hg10 mi
6:50 PM50 °FPassing clouds.6 mph82%30.12 "HgN/A
6:20 PM50 °FPassing clouds.3 mph76%30.12 "HgN/A
Weather by CustomWeather, © 2016

See weather overviewHow to use our weather pages